APEX ARIES 1, 59129

Orbit data source: Space-Track

APEX ARIES 1, 59129 is a payload satellite owned by Apex (US) in SSO that was launched on Mon, 04 Mar 2024 UTC via an FALCON 9 launch vehicle from the Air Force Western Test Range (AFWTR). Aries 1 is the flagship mission for Apex’s Aries standardized satellite bus platform, carrying a “selfie camera” as well a handful of hosted payloads. Apex’s standardized satellite bus platforms enable missions like Earth observation, communication networks, scientific research, and more!

Loading next visibility...
APEX ARIES 1 details
Identifier
59129, 2024-043AH
Orbit
SSO
Last TLE update11 hours ago
Origin
Flag of USApex (US)
ManufacturerApex
MissionOperational Commercial Radar Imaging
Bus & MotorARIES, Unknown motor
Mass200 kg wet, 200 kg dry
Launch date (UTC)
2024-03-04 (9 months ago)
Launch vehicle
FALCON 9
Launch site
Air Force Western Test Range (AFWTR)
Object type
Payload
Rocket body
Debris
Shape & HBRBox + 1 Pan, 3.25 m
Radar Cross Section0.825 m², Medium (>0.1 m² and < 1m²)

Expand to show TLE details & history

TLE from 11 hours ago
0 APEX ARIES 1
1 59129U 24043AH  24325.80584241  .00020961  00000-0  80430-3 0  9993
2 59129  97.4902  88.9919 0010909  99.9073 260.3397 15.26449102 39645
Epoch: 2024-11-20T19:20Z
Definitive object data (Epoch: 2024-11-20T19:20:24.784Z)
Latitude-0.00004°
Longitude98.59198°
Altitude490.799 km
Speed7.619 km/s
True Right ascension05h 55m 58s
True Declination0° 00' 00"
Sunlit
Object was in full shadow at TLE epoch
Visualization TLE readout
Latitude31.98046°
Longitude94.37498°
Altitude487.558 km
Speed7.626 km/s
Apparent Right ascension09h 27m 46s
Apparent Declination-8° 25' 18"
Sunlit
Object is in full shadow
Visualization observer readout
Local Sidereal Time03:32:09
Azimuth97.171° ESE
Elevation-4.56°
Doppler factor1
Orbital elements
Apogee altitude490.884 km
Perigee altitude475.913 km
Semi-major axis6,861.535 km
Eccentricity0.0010909
Inclination97.4902°
RAAN88.9919°
Arg. of periapsis99.9073°
True anomaly260.21649°
Mean anomaly260.3397°
Eccentric anomaly260.27809°
Mean motion3.81866 °/min
BSTAR0.0008043
Orbital period94.27 mins
Loading maneuver chart data...
Loading historical data...
Loading historical data...
Loading historical data...
Loading historical data...
Loading historical data...
Loading historical data...
Loading historical data...

APEX ARIES 1 Visibility forecast

Observer location: undefined°, undefined

Span
Click to sort rows by Start time (UTC) header in descending order
Start Az.
Max El. time (UTC)
Max El. Az.
Max El.
End time (UTC)
End Az.
6 mins2024-11-21 08:03:36.233Z141.228° SSE2024-11-21 08:06:36.233Z64.528° ENE33.057°2024-11-21 08:09:36.233Z3.733° NNE
5 mins2024-11-21 21:05:36.233Z29.781° NE2024-11-21 21:07:36.233Z117.051° SE39.927°2024-11-21 21:10:36.233Z179.711° S
|